TimeMST,TemperatureF,Dew PointF,Humidity,Sea Level PressureIn,VisibilityMPH,Wind Direction,Wind SpeedMPH,Gust SpeedMPH,PrecipitationIn,Events,Conditions,WindDirDegrees,DateUTC
12:53 AM,15.1,-0.9,49,30.03,10.0,North,5.8,-,N/A,,Overcast,350,2012-12-31 07:53:00
1:53 AM,19.9,1.0,44,30.01,10.0,Calm,Calm,-,N/A,,Overcast,0,2012-12-31 08:53:00
2:53 AM,18.0,1.9,50,30.02,10.0,Calm,Calm,-,N/A,,Overcast,0,2012-12-31 09:53:00
3:53 AM,19.0,3.0,50,30.02,10.0,East,5.8,-,N/A,,Overcast,90,2012-12-31 10:53:00
4:53 AM,19.9,3.9,50,30.03,10.0,Calm,Calm,-,N/A,,Overcast,0,2012-12-31 11:53:00
5:53 AM,17.1,3.0,54,30.06,10.0,Calm,Calm,-,N/A,,Clear,0,2012-12-31 12:53:00
6:53 AM,16.0,3.9,59,30.07,10.0,WNW,3.5,-,N/A,,Clear,290,2012-12-31 13:53:00
7:53 AM,14.0,3.0,62,30.09,10.0,Calm,Calm,-,N/A,,Clear,0,2012-12-31 14:53:00
8:53 AM,19.0,6.1,57,30.09,10.0,Calm,Calm,-,N/A,,Mostly Cloudy,0,2012-12-31 15:53:00
9:53 AM,21.0,9.0,60,30.13,10.0,Calm,Calm,-,N/A,,Overcast,0,2012-12-31 16:53:00
10:53 AM,25.0,10.0,53,30.11,10.0,Calm,Calm,-,N/A,,Overcast,0,2012-12-31 17:53:00
11:53 AM,26.1,10.0,51,30.09,10.0,SE,3.5,-,N/A,,Clear,130,2012-12-31 18:53:00
12:53 PM,28.0,10.0,47,30.04,10.0,Calm,Calm,-,N/A,,Clear,0,2012-12-31 19:53:00
1:53 PM,30.0,9.0,41,30.01,10.0,NNE,5.8,-,N/A,,Scattered Clouds,20,2012-12-31 20:53:00
2:53 PM,30.0,9.0,41,30.02,10.0,Variable,4.6,-,N/A,,Clear,0,2012-12-31 21:53:00
3:53 PM,28.9,10.0,45,30.04,10.0,ESE,3.5,-,N/A,,Clear,120,2012-12-31 22:53:00
4:53 PM,26.1,8.1,47,30.06,10.0,East,5.8,-,N/A,,Clear,80,2012-12-31 23:53:00
5:53 PM,21.2,8.6,58,29.97,10.0,East,10.4,-,N/A,,Clear,80,2013-01-01 00:53:00
6:53 PM,21.9,10.9,63,30.14,10.0,ESE,8.1,-,N/A,,Overcast,110,2013-01-01 01:53:00
7:53 PM,21.9,12.0,66,30.17,10.0,SE,8.1,-,N/A,,Overcast,130,2013-01-01 02:53:00
8:53 PM,19.9,14.0,78,30.18,8.0,SSE,4.6,-,N/A,,Mostly Cloudy,160,2013-01-01 03:53:00
9:53 PM,14.0,9.0,80,30.20,10.0,East,4.6,-,N/A,,Clear,80,2013-01-01 04:53:00
10:53 PM,14.0,10.9,88,30.20,10.0,NE,4.6,-,N/A,,Overcast,50,2013-01-01 05:53:00
11:53 PM,14.0,10.9,88,30.20,9.0,NE,3.5,-,N/A,,Overcast,50,2013-01-01 06:53:00